DW3560 Weather Reports


time (UTC)temp
F
wind
direction
speed
knots
gust
knots
rain 1hr
in
rain 24hr
in
rain mn
in
humidity
%
barometer
mb
20260508134502 50 241 0.9 8.7 0.00 0.00 0.00 93 1017.9
20260508134023 50 247 0.9 8.7 0.00 0.00 0.00 93 1017.9
20260508133502 50 229 0.9 4.3 0.00 0.00 0.00 93 1017.9
20260508133002 50 228 0.9 4.3 0.00 0.00 0.00 93 1017.9
20260508132502 50 236 0.9 4.3 0.00 0.00 0.00 93 1017.9
20260508132002 50 237 0.9 4.3 0.00 0.00 0.00 93 1017.9
20260508131502 50 243 0.9 4.3 0.00 0.00 0.00 93 1017.9
20260508131002 50 238 0.9 5.2 0.00 0.00 0.00 93 1017.9
20260508130523 50 227 0.9 5.2 0.00 0.00 0.00 93 1017.9
20260508130002 50 229 0.9 3.5 0.00 0.00 0.00 93 1017.9
20260508125502 50 230 0.9 3.5 0.00 0.00 0.00 92 1017.9
20260508125023 50 229 0.0 2.6 0.00 0.00 0.00 92 1017.9
20260508124502 50 234 0.9 3.5 0.00 0.00 0.00 92 1017.9
20260508124023 50 230 0.9 3.5 0.00 0.00 0.00 93 1017.9
20260508123502 50 225 0.9 5.2 0.00 0.00 0.00 93 1017.9
20260508123002 50 225 0.9 5.2 0.00 0.00 0.00 92 1017.9
20260508122502 50 223 0.9 3.5 0.00 0.00 0.00 93 1017.9
20260508122002 50 231 0.9 4.3 0.00 0.00 0.00 93 1017.9
20260508121502 50 230 0.9 4.3 0.00 0.00 0.00 93 1017.9
20260508121002 50 228 0.9 4.3 0.00 0.00 0.00 93 1017.9
20260508120502 50 250 0.9 5.2 0.00 0.00 0.00 93 1017.9
20260508120023 50 244 0.9 5.2 0.00 0.00 0.00 93 1017.9
20260508115502 50 236 0.9 3.5 0.00 0.00 0.00 93 1017.9
20260508115023 50 229 0.9 4.3 0.00 0.00 0.00 93 1017.9
20260508114523 50 228 0.9 4.3 0.00 0.00 0.00 93 1017.9
20260508114002 50 228 0.9 4.3 0.00 0.00 0.00 93 1017.9
20260508113502 50 232 0.9 4.3 0.00 0.00 0.00 93 1017.9
20260508113023 50 233 0.9 4.3 0.00 0.00 0.00 92 1017.9
20260508112502 50 230 0.9 2.6 0.00 0.00 0.00 92 1017.9
20260508112002 50 234 0.9 2.6 0.00 0.00 0.00 92 1017.9
20260508111503 50 232 0.9 3.5 0.00 0.00 0.00 92 1017.9
20260508111002 50 231 0.9 6.1 0.00 0.00 0.00 92 1017.9
20260508110502 50 237 1.7 6.1 0.00 0.00 0.00 92 1017.9
20260508110002 50 235 1.7 5.2 0.00 0.00 0.00 92 1018.0
20260508105502 50 232 0.9 4.3 0.00 0.00 0.00 92 1018.0
20260508105023 50 239 0.9 3.5 0.00 0.00 0.00 92 1018.0
20260508104523 50 241 0.9 3.5 0.00 0.00 0.00 92 1018.0
20260508104002 50 257 0.9 3.5 0.00 0.00 0.00 92 1018.0
20260508103502 50 258 0.9 3.5 0.00 0.00 0.00 92 1018.0
20260508103002 50 229 0.0 1.7 0.00 0.00 0.00 92 1018.0
20260508102502 50 215 0.0 3.5 0.00 0.00 0.00 92 1018.0
20260508102002 50 233 0.9 3.5 0.00 0.00 0.00 92 1018.0
20260508101502 50 252 0.0 3.5 0.00 0.00 0.00 92 1018.0
20260508101002 50 290 0.0 1.7 0.00 0.00 0.00 92 1018.0
20260508100502 50 263 0.0 4.3 0.00 0.00 0.00 92 1018.0
20260508100002 50 237 0.9 4.3 0.00 0.00 0.00 92 1018.0
20260508095524 50 237 0.9 4.3 0.00 0.00 0.00 92 1018.0
20260508095002 50 229 0.0 2.6 0.00 0.00 0.00 92 1018.0
20260508094524 50 234 0.9 2.6 0.00 0.00 0.00 92 1018.0
20260508094002 50 235 0.9 3.5 0.00 0.00 0.00 92 1018.0
20260508093502 50 233 0.0 3.5 0.00 0.00 0.00 92 1018.0
20260508093002 51 240 0.0 2.6 0.00 0.00 0.00 92 1018.0
20260508092523 51 244 0.0 2.6 0.00 0.00 0.00 92 1018.0
20260508092002 50 237 0.9 3.5 0.00 0.00 0.00 92 1018.0
20260508091503 51 233 0.9 3.5 0.00 0.00 0.00 92 1018.0
20260508091002 51 223 0.9 3.5 0.00 0.00 0.00 92 1018.0
20260508090502 50 222 0.9 3.5 0.00 0.00 0.00 92 1018.0
20260508090003 50 230 0.9 3.5 0.00 0.00 0.00 92 1018.0
20260508085502 50 237 0.9 3.5 0.00 0.00 0.00 92 1018.0
20260508085023 50 251 0.9 2.6 0.00 0.00 0.00 92 1018.0
20260508084502 51 236 0.9 3.5 0.00 0.00 0.00 92 1018.0
20260508084002 51 222 0.9 3.5 0.00 0.00 0.00 92 1018.0
20260508083502 51 222 0.9 4.3 0.00 0.00 0.00 92 1018.0
20260508083002 51 227 0.9 4.3 0.00 0.00 0.00 92 1018.0
20260508082503 51 225 0.9 4.3 0.00 0.00 0.00 92 1018.0
20260508082002 51 202 0.9 3.5 0.00 0.00 0.00 92 1018.0
20260508081502 51 205 0.0 2.6 0.00 0.00 0.00 92 1018.0
20260508081003 51 231 0.9 5.2 0.00 0.00 0.00 92 1018.0
20260508080502 51 238 0.9 5.2 0.00 0.00 0.00 92 1018.0
20260508080023 51 247 0.9 3.5 0.00 0.00 0.00 92 1018.0
20260508075502 51 249 0.0 3.5 0.00 0.00 0.00 93 1018.0
20260508075002 51 237 0.9 3.5 0.00 0.00 0.00 92 1018.0
20260508073502 52 242 0.0 0.9 0.00 0.00 0.00 92 1018.0
20260508073003 52 234 0.0 2.6 0.00 0.00 0.00 93 1018.0
20260508072503 52 236 0.0 2.6 0.00 0.00 0.00 92 1018.0
20260508072023 52 237 0.0 2.6 0.00 0.00 0.00 92 1018.0
20260508071502 52 0 0.0 0.0 0.00 0.00 0.00 92 1018.0
20260508071002 52 249 0.0 0.9 0.00 0.00 0.00 92 1018.0
20260508070502 52 251 0.0 0.9 0.00 0.00 0.00 92 1018.0
20260508070027 52 251 0.0 0.9 0.00 0.00 0.00 92 1018.0
20260508065502 52 262 0.0 0.9 0.00 0.00 0.00 92 1018.0
20260508065002 52 261 0.0 1.7 0.00 0.00 0.00 92 1018.0
20260508064502 52 253 0.0 1.7 0.00 0.00 0.00 92 1018.0
20260508064002 52 235 0.0 0.9 0.00 0.00 0.00 92 1018.0
20260508063502 52 236 0.0 1.7 0.00 0.00 0.00 92 1018.0
20260508063003 52 236 0.0 1.7 0.00 0.00 0.00 92 1018.0
20260508062524 52 283 0.0 1.7 0.00 0.00 0.00 92 1018.0
20260508062003 53 315 0.0 1.7 0.00 0.00 0.00 92 1018.0
20260508061502 53 314 0.0 1.7 0.00 0.00 0.00 92 1017.9
20260508061024 53 307 0.0 2.6 0.00 0.00 0.00 92 1017.9
20260508060502 53 296 0.0 2.6 0.00 0.00 0.00 92 1017.9
20260508060003 53 222 0.0 1.7 0.00 0.00 0.00 92 1017.9
20260508055502 53 216 0.0 1.7 0.00 0.00 0.00 91 1017.9
20260508055003 53 216 0.0 1.7 0.00 0.00 0.00 91 1017.9
20260508054503 53 311 0.0 0.9 0.00 0.00 0.00 91 1017.9
20260508054002 53 311 0.0 0.9 0.00 0.00 0.00 91 1017.9
20260508053503 53 311 0.0 0.9 0.00 0.00 0.00 91 1017.9
20260508053023 53 311 0.0 0.9 0.00 0.00 0.00 91 1017.9
20260508052523 53 322 0.0 0.9 0.00 0.00 0.00 91 1017.9
20260508052002 53 322 0.0 1.7 0.00 0.00 0.00 91 1017.9
20260508051524 53 322 0.0 1.7 0.00 0.00 0.00 90 1017.5
20260508051002 53 322 0.0 1.7 0.00 0.00 0.00 90 1017.5
20260508050502 53 323 0.0 1.7 0.00 0.00 0.00 90 1017.5
20260508050003 53 324 0.0 0.9 0.00 0.00 0.00 90 1017.5
20260508045502 53 329 0.0 1.7 0.00 0.00 0.00 90 1017.5
20260508045003 53 330 0.0 1.7 0.00 0.00 0.00 90 1017.5
20260508044503 53 327 0.0 1.7 0.00 0.00 0.00 90 1017.5
20260508044003 53 327 0.0 3.5 0.00 0.00 0.00 90 1017.5
20260508043502 53 322 0.0 3.5 0.00 0.00 0.00 90 1017.5
20260508043002 53 303 0.0 1.7 0.00 0.00 0.00 90 1017.5
20260508042502 53 314 0.0 1.7 0.00 0.00 0.00 89 1017.5
20260508042003 54 313 0.0 1.7 0.00 0.00 0.00 89 1017.5
20260508041502 54 332 0.0 2.6 0.00 0.00 0.00 89 1016.8
20260508041002 54 325 0.0 2.6 0.00 0.00 0.00 89 1016.8
20260508040523 54 321 0.0 2.6 0.00 0.00 0.00 89 1016.8
20260508040003 54 300 0.0 2.6 0.00 0.00 0.00 88 1016.8
20260508035503 54 283 0.0 2.6 0.00 0.00 0.00 88 1016.8
20260508035002 54 244 0.0 1.7 0.00 0.00 0.00 88 1016.8
20260508034503 54 225 0.0 1.7 0.00 0.00 0.00 88 1016.8
20260508034024 54 232 0.0 2.6 0.00 0.00 0.00 87 1016.8
20260508033503 54 239 0.0 2.6 0.00 0.00 0.00 87 1016.8
20260508033003 55 315 0.0 1.7 0.00 0.00 0.00 86 1016.8
20260508032503 55 327 0.0 2.6 0.00 0.00 0.00 86 1016.8
20260508032003 55 327 0.0 2.6 0.00 0.00 0.00 86 1016.8
20260508031503 55 322 0.0 2.6 0.00 0.00 0.00 85 1016.8
20260508031003 55 321 0.0 1.7 0.00 0.00 0.00 85 1016.8
20260508030503 56 321 0.0 0.9 0.00 0.00 0.00 85 1016.8
20260508030003 56 309 0.0 2.6 0.00 0.00 0.00 84 1016.8
20260508025503 56 301 0.0 2.6 0.00 0.00 0.00 84 1016.8
20260508025003 56 295 0.0 1.7 0.00 0.00 0.00 84 1016.8
20260508024503 57 314 0.0 2.6 0.00 0.00 0.00 83 1016.8
20260508024003 57 328 0.0 2.6 0.00 0.00 0.00 83 1016.8
20260508023503 57 338 0.9 3.5 0.00 0.00 0.00 83 1016.8
20260508023003 57 337 0.0 3.5 0.00 0.00 0.00 82 1016.8
20260508022524 58 346 0.0 2.6 0.00 0.00 0.00 82 1016.8
20260508022003 58 345 0.0 3.5 0.00 0.00 0.00 82 1016.8
20260508021503 58 344 0.0 3.5 0.00 0.00 0.00 81 1016.8
20260508021002 58 343 0.9 2.6 0.00 0.00 0.00 81 1016.8
20260508020503 58 343 0.9 2.6 0.00 0.00 0.00 81 1016.8
20260508020002 59 340 0.9 7.0 0.00 0.00 0.00 80 1016.8
20260508015524 59 340 0.9 7.0 0.00 0.00 0.00 80 1016.8
20260508015003 59 339 0.9 4.3 0.00 0.00 0.00 79 1016.8
20260508014502 60 342 1.7 5.2 0.00 0.00 0.00 79 1016.8
20260508014023 60 342 0.9 5.2 0.00 0.00 0.00 78 1016.8
20260508013503 60 337 0.0 4.3 0.00 0.00 0.00 77 1016.8
20260508013003 61 341 0.9 4.3 0.00 0.00 0.00 76 1016.8
20260508012503 61 345 0.9 7.8 0.00 0.00 0.00 75 1016.8
20260508012003 62 348 0.9 7.8 0.00 0.00 0.00 74 1016.8
20260508011524 62 346 0.9 5.2 0.00 0.00 0.00 74 1017.0
20260508011002 63 336 0.9 3.5 0.00 0.00 0.00 73 1017.0
20260508010502 63 337 0.9 7.0 0.00 0.00 0.00 72 1017.0
20260508010024 64 341 1.7 7.0 0.00 0.00 0.00 72 1017.0
20260508005503 64 344 1.7 5.2 0.00 0.00 0.00 71 1017.0
20260508005003 65 349 0.9 4.3 0.00 0.00 0.00 71 1017.0
20260508004503 65 346 0.9 7.8 0.00 0.00 0.00 70 1017.0
20260508004024 65 346 1.7 7.8 0.00 0.00 0.00 70 1017.0
20260508003503 66 348 1.7 8.7 0.00 0.00 0.00 70 1017.0
20260508003002 66 351 1.7 8.7 0.00 0.00 0.00 70 1017.0
20260508002503 66 351 1.7 7.8 0.00 0.00 0.00 69 1017.0
20260508002003 67 343 1.7 7.8 0.00 0.00 0.00 69 1017.0
20260508001503 67 336 1.7 5.2 0.00 0.00 0.00 69 1017.0
20260508001002 67 337 1.7 7.0 0.00 0.00 0.00 69 1017.0
20260508000503 68 346 1.7 7.0 0.00 0.00 0.00 68 1017.0
20260508000003 68 353 0.9 4.3 0.00 0.00 0.00 67 1017.0
20260507235503 69 344 1.7 5.2 0.00 0.00 0.00 67 1017.0
20260507235003 69 344 1.7 7.8 0.00 0.00 0.00 67 1017.0
20260507234503 70 340 1.7 7.8 0.00 0.00 0.00 65 1017.0
20260507234003 70 336 0.9 5.2 0.00 0.00 0.00 65 1017.0
20260507233503 70 337 1.7 6.1 0.00 0.00 0.00 65 1017.0
20260507233003 71 328 1.7 6.1 0.00 0.00 0.00 65 1017.0
20260507232503 71 316 0.9 5.2 0.00 0.00 0.00 65 1017.0
20260507232002 71 300 0.9 5.2 0.00 0.00 0.00 64 1017.0
20260507231503 71 244 0.9 3.5 0.00 0.00 0.00 62 1017.3
20260507231003 72 288 0.9 5.2 0.00 0.00 0.00 62 1017.3
20260507230524 72 320 0.9 5.2 0.00 0.00 0.00 61 1017.3
20260507230004 72 333 0.9 4.3 0.00 0.00 0.00 62 1017.3
20260507225503 72 351 1.7 4.3 0.00 0.00 0.00 61 1017.3
20260507225003 72 351 1.7 4.3 0.00 0.00 0.00 62 1017.3
20260507224503 72 347 1.7 4.3 0.00 0.00 0.00 61 1017.3
20260507224003 72 350 0.9 5.2 0.00 0.00 0.00 61 1017.3
20260507223503 72 352 0.9 5.2 0.00 0.00 0.00 62 1017.3
20260507223023 72 332 0.9 5.2 0.00 0.00 0.00 63 1017.3
20260507222503 72 304 0.9 2.6 0.00 0.00 0.00 63 1017.3
20260507222024 72 338 1.7 5.2 0.00 0.00 0.00 62 1017.3
20260507221503 72 341 1.7 5.2 0.00 0.00 0.00 62 1017.9
20260507221024 71 345 1.7 5.2 0.00 0.00 0.00 62 1017.9
20260507220503 71 347 0.9 5.2 0.00 0.00 0.00 63 1017.9
20260507220003 71 329 0.9 3.5 0.00 0.00 0.00 64 1017.9
20260507215503 71 307 0.9 3.5 0.00 0.00 0.00 64 1017.9
20260507215003 71 335 0.9 4.3 0.00 0.00 0.00 63 1017.9
20260507214503 71 9 0.9 4.3 0.00 0.00 0.00 65 1017.9
20260507214024 70 326 1.7 4.3 0.00 0.00 0.00 65 1017.9
20260507213503 70 310 1.7 5.2 0.00 0.00 0.00 63 1017.9
20260507213003 70 326 0.9 4.3 0.00 0.00 0.00 64 1017.9
20260507212503 70 316 0.9 4.3 0.00 0.00 0.00 65 1017.9
20260507212003 70 330 0.9 3.5 0.00 0.00 0.00 64 1017.9
20260507211524 70 344 0.9 3.5 0.00 0.00 0.00 64 1018.4
20260507211003 69 341 0.9 3.5 0.00 0.00 0.00 65 1018.4
20260507210503 69 335 0.9 4.3 0.00 0.00 0.00 67 1018.4
20260507210003 68 319 0.9 5.2 0.00 0.00 0.00 67 1018.4
20260507205503 68 276 0.9 5.2 0.00 0.00 0.00 67 1018.4
20260507205003 68 268 1.7 5.2 0.00 0.00 0.00 66 1018.4
20260507204503 68 251 0.9 4.3 0.00 0.00 0.00 67 1018.4
20260507204003 68 267 0.9 4.3 0.00 0.00 0.00 67 1018.4
20260507203503 67 290 0.9 2.6 0.00 0.00 0.00 68 1018.4
20260507203003 67 224 1.7 3.5 0.00 0.00 0.00 67 1018.4
20260507202503 67 206 1.7 3.5 0.00 0.00 0.00 67 1018.4
20260507202003 66 233 0.9 3.5 0.00 0.00 0.00 68 1018.4
20260507201503 66 285 0.9 2.6 0.00 0.00 0.00 69 1018.8
20260507201003 66 240 0.9 4.3 0.00 0.00 0.00 69 1018.8
20260507200503 66 242 0.9 4.3 0.00 0.00 0.00 69 1018.8
20260507200024 65 325 0.9 3.5 0.00 0.00 0.00 70 1018.8
20260507195524 65 340 0.9 5.2 0.00 0.00 0.00 71 1018.8
20260507195003 65 325 0.9 5.2 0.00 0.00 0.00 72 1018.8
20260507194503 65 325 0.9 4.3 0.00 0.00 0.00 73 1018.8
20260507194003 64 327 0.9 3.5 0.00 0.00 0.00 73 1018.8
20260507193503 64 285 0.9 3.5 0.00 0.00 0.00 74 1018.8
20260507193003 64 300 0.9 4.3 0.00 0.00 0.00 74 1018.8
20260507192503 63 338 1.7 4.3 0.00 0.00 0.00 75 1018.8
20260507192003 63 343 0.9 3.5 0.00 0.00 0.00 77 1018.8
20260507191503 62 334 0.9 3.5 0.00 0.00 0.00 78 1019.3
20260507191003 62 326 0.9 3.5 0.00 0.00 0.00 77 1019.3
20260507190503 61 280 0.9 3.5 0.00 0.00 0.00 79 1019.3
20260507190004 61 277 0.9 2.6 0.00 0.00 0.00 78 1019.3
20260507185503 61 272 0.9 3.5 0.00 0.00 0.00 79 1019.3
20260507185024 60 231 1.7 7.0 0.00 0.00 0.00 80 1019.3
20260507184524 60 250 1.7 7.0 0.00 0.00 0.00 79 1019.3
20260507184003 61 341 1.7 5.2 0.00 0.00 0.00 81 1019.3
20260507183503 60 349 1.7 5.2 0.00 0.00 0.00 82 1019.3
20260507183003 60 4 0.9 4.3 0.00 0.00 0.00 84 1019.3
20260507182503 60 348 0.9 4.3 0.00 0.00 0.00 85 1019.3
20260507182024 59 341 0.9 7.0 0.00 0.00 0.00 87 1019.3
20260507181503 59 345 0.9 7.0 0.00 0.00 0.00 88 1018.5
20260507181003 59 354 0.9 3.5 0.00 0.00 0.00 89 1018.5
20260507180503 58 296 0.9 3.5 0.00 0.00 0.00 91 1018.5
20260507180024 57 275 0.9 3.5 0.00 0.00 0.00 91 1018.5
20260507175503 57 326 0.9 3.5 0.00 0.00 0.00 92 1018.5
20260507175003 57 342 0.0 4.3 0.00 0.00 0.00 93 1018.5
20260507174503 56 333 0.0 4.3 0.00 0.00 0.00 93 1018.5
20260507174003 56 337 0.9 3.5 0.00 0.00 0.00 94 1018.5
20260507173524 56 337 0.9 3.5 0.00 0.00 0.00 94 1018.5
20260507173003 55 338 0.9 4.3 0.00 0.00 0.00 94 1018.5
20260507172503 55 336 1.7 4.3 0.00 0.00 0.00 95 1018.5
20260507172003 55 308 0.9 3.5 0.00 0.00 0.00 95 1018.5
20260507171503 54 263 0.0 1.7 0.00 0.00 0.00 95 1018.5
20260507171003 54 308 0.9 3.5 0.00 0.00 0.00 95 1018.5
20260507170503 54 330 0.9 3.5 0.00 0.00 0.00 95 1018.5
20260507170003 54 343 0.9 3.5 0.00 0.00 0.00 95 1018.5
20260507165503 53 342 0.9 3.5 0.00 0.00 0.00 95 1018.5
20260507165003 53 337 0.9 3.5 0.00 0.00 0.00 95 1018.5
20260507164503 53 332 0.9 3.5 0.00 0.00 0.00 95 1018.5
20260507164003 53 334 0.9 3.5 0.00 0.00 0.00 95 1018.5
20260507163503 53 344 0.9 2.6 0.00 0.00 0.00 95 1018.5
20260507163003 53 343 0.0 1.7 0.00 0.00 0.00 95 1018.5
20260507162503 52 346 0.0 2.6 0.00 0.00 0.00 95 1018.5
20260507162024 52 344 0.9 3.5 0.00 0.00 0.00 95 1018.5
20260507161503 52 343 0.9 3.5 0.00 0.00 0.00 95 1018.5
20260507161003 52 340 0.9 3.5 0.00 0.00 0.00 95 1018.5
20260507160524 52 339 0.9 3.5 0.00 0.00 0.00 95 1018.5
20260507160003 52 336 0.9 2.6 0.00 0.00 0.00 95 1018.5
20260507155503 52 337 0.9 2.6 0.00 0.00 0.00 95 1018.5
20260507155003 52 340 0.9 2.6 0.00 0.00 0.00 95 1018.5
20260507154503 52 346 0.9 4.3 0.00 0.00 0.00 95 1018.5
20260507154003 52 347 0.9 4.3 0.00 0.00 0.00 95 1018.5
20260507153524 52 348 0.9 2.6 0.00 0.00 0.00 95 1018.5
20260507153003 52 346 0.0 1.7 0.00 0.00 0.00 95 1018.5
20260507152503 52 346 0.9 2.6 0.00 0.00 0.00 95 1018.5
20260507152003 52 346 0.9 3.5 0.00 0.00 0.00 95 1018.5
20260507151503 52 345 0.9 3.5 0.00 0.00 0.00 95 1018.5
20260507151024 52 344 0.0 1.7 0.00 0.00 0.00 95 1018.5
20260507150503 51 344 0.0 1.7 0.00 0.00 0.00 95 1018.5
20260507150003 51 344 0.9 3.5 0.00 0.00 0.00 95 1018.5
20260507145524 51 344 0.9 3.5 0.00 0.00 0.00 95 1018.5
20260507145003 51 344 0.9 3.5 0.00 0.00 0.00 95 1018.5
20260507144503 51 344 0.0 1.7 0.00 0.00 0.00 95 1018.5
20260507144003 51 344 0.0 1.7 0.00 0.00 0.00 95 1018.5
20260507143503 51 344 0.0 1.7 0.00 0.00 0.00 95 1018.5
20260507143025 51 344 0.0 1.7 0.00 0.00 0.00 95 1018.5
20260507142503 51 344 0.0 2.6 0.00 0.00 0.00 95 1018.5
20260507142003 51 346 0.9 4.3 0.00 0.00 0.00 95 1018.5
20260507141503 51 346 0.9 4.3 0.00 0.00 0.00 95 1018.5
20260507141003 51 350 0.0 0.9 0.00 0.00 0.00 95 1018.5
20260507140524 51 350 0.0 0.9 0.00 0.00 0.00 95 1018.5
20260507140003 51 351 0.0 0.9 0.00 0.00 0.00 95 1018.5
20260507135503 51 351 0.0 2.6 0.00 0.00 0.00 95 1018.5
20260507135004 51 351 0.0 2.6 0.00 0.00 0.00 95 1018.5
20260507134524 51 350 0.0 1.7 0.00 0.00 0.00 95 1018.5